Weather in Usole

Russia / Perm Krai     59°25′40″N   56°41′01″E
temp.,
°C
wind,
m/s
gust,
m/s
humid.,
%
clouds,
%
prec.,
mm/h
press.,
hPa
HPBL,
m
1 march, mon
mon123:00−20ene229169 0.0 101721
02:00−22ene128967 0.0 101820
05:00−22ene128973 0.0 101920
08:00−23ne119112 0.0 101920
11:00−17w00846 0.0 1018166
14:00−13sw22800 0.0 1017389
17:00−12ssw24870 0.0 1015371
20:00−17s379433 0.0 1013158
2 march, tue
tue223:00−16s4119652 0.0 1011326
02:00−15s51393100 0.0 1008431
05:00−15s61393100 0.1 1005459
08:00−14s51294100 0.6 1001551
11:00−13s61193100 1.4 1000590
14:00−12s51092100 0.8 998568
17:00−12s4993100 1.6 997568
20:00−12s3995100 0.8 996481
3 march, wed
wed323:00−12sse3795100 1.3 996312
02:00−13sse2596100 0.1 996150
05:00−15sse129799 0.1 99620
08:00−17sse119997 0.0 99520
11:00−11s129297 0.1 995175
14:00−8ssw1289100 0.0 994313
17:00−6ssw2494100 0.2 994287
20:00−7ssw3896100 0.4 994263
4 march, thu
thu423:00−7wnw41094100 0.7 995603
02:00−8wnw4995100 0.4 995377
05:00−12w2597100 0.4 996147
08:00−13wsw2597100 0.1 996152
11:00−11wsw259396 0.3 996294
14:00−8sw3588100 0.2 995719
17:00−7sw3688100 0.3 995763
20:00−9s3996100 0.2 995281
5 march, fri
fri523:00−11sse2796100 0.2 994213
02:00−10sse4995100 0.2 991350
05:00−9se41193100 0.6 988467
08:00−7se4995100 0.9 986440
11:00−5e2394100 2.0 986271
14:00−5nnw3591100 0.3 988547
17:00−7wnw61091100 0.7 994816
20:00−11wnw61191100 0.3 998627